Hourly Data Report for October 25, 2015

All times are specified in Local Standard Time (LST). Add 1 hour to adjust for Daylight Saving Time where and when it is observed.

EUREKA CLIMATE
NUNAVUT

79°59'21.000" N
85°56'02.000" W
10.00 m
2401199
71613
NEK

Download Data

Hourly Data (October 2015)
Hourly Data Report for October 25, 2015
Temp Definition
°C
Dew Point Temp Definition
°C
Rel Hum Definition
%
Wind Dir Definition
10's deg

Wind Spd Definition
km/h
Visibility Definition
km
Stn Press Definition
kPa
Hmdx Definition


Wind Chill Definition


Weather Definition


TIME
00:00 -21.3 -24.6 75 29 19   100.48   -32 LegendNANA
01:00 -21.2 -24.2 77 30 25   100.43   -33 LegendNANA
02:00 -21.2 -24.2 77 30 25   100.46   -33 LegendNANA
03:00 -20.4 -23.9 74 28 27   100.45   -33 LegendNANA
04:00 -20.1 -24.1 70 32 20   100.46   -31 LegendNANA
05:00 -19.8 -22.6 78 30 26   100.50   -32 LegendNANA
06:00 -19.4 -22.4 77 31 26   100.54   -31 LegendNANA
07:00 -19.4 -22.3 78 31 24   100.61   -31 LegendNANA
08:00 -19.1 -21.9 79 31 25   100.62   -30 LegendNANA
09:00 -18.5 -21.6 76 30 21   100.67   -29 LegendNANA
10:00 -19.5 -23.1 73 31 10   100.69   -27 LegendNANA
11:00 -19.4 -22.1 79 30 23   100.67   -30 LegendNANA
12:00 -19.1 -21.9 78 31 25   100.70   -30 LegendNANA
13:00 -17.7 -21.7 71 30 25   100.72   -29 LegendNANA
14:00 -19.4 -24.6 63 33 17   100.76   -29 LegendNANA
15:00 -22.0 -25.0 76 2 18   100.78   -32 LegendNANA
16:00 -19.4 -23.0 73 35 9   100.82   -26 LegendNANA
17:00 -21.3 -25.2 71 33 9   100.82   -28 LegendNANA
18:00 -21.1 -25.1 71 32 18   100.83   -31 LegendNANA
19:00 -19.0 -22.2 76 28 26   100.85   -31 LegendNANA
20:00 -19.4 -22.5 77 31 18   100.84   -29 LegendNANA
21:00 -19.2 -22.3 77 30 23   100.84   -30 LegendNANA
22:00 -19.9 -23.0 76 30 22   100.84   -31 LegendNANA
23:00 -20.8 -23.6 79 31 24   100.82   -32 LegendNANA

Notes on Data Quality.

Legend

  • E = Estimated
  • M = Missing
  • NA = Not Available
  • ‡ = Partner data that is not subject to review by the National Climate Archives
Date modified: